World > North America > United States > Texas

Hourly Prairie Hill, TX Regional Weather

Feedback E-mail the Weather

Quick WX

Prairie Hill, TX Weather Maps

°F °C°F °C
Prairie Hill Weather Map
UTC Time: 6/29/2022, 01:20
Your Time:

Prairie Hill, TX Regional Weather

Expires:202206290200;;359140
ASUS44 KFWD 290115
RWRTX 
NORTH TEXAS HOURLY WEATHER ROUNDUP
NATIONAL WEATHER SERVICE FORT WORTH TX
800 PM CDT TUE JUN 28 2022

NOTE: "FAIR" INDICATES FEW OR NO CLOUDS BELOW 12,000 FEET WITH NO
SIGNIFICANT WEATHER AND/OR OBSTRUCTIONS TO VISIBILITY.


TXZ143>147-156>162-174-175-290200-
CENTRAL TEXAS
  
CITY           SKY/WX    TMP DP  RH WIND       PRES   REMARKS
WACO           FAIR      90  53  28 E8        30.06R                  
WACO-TSTC      CLEAR     90  45  20 E9        30.07R                  
WACO-MCGREGOR  FAIR      89  58  34 E8        30.07S                  
HILLSBORO      FAIR      88  51  27 NE7       30.08R                  
CORSICANA      FAIR      89  49  25 E7        30.08R                  
MEXIA          FAIR      89  50  26 NE3       30.06S                  
HEARNE         FAIR      91  52  27 NE6       30.05S                  
CAMERON        FAIR      89  51  27 E5        30.06R                  
TEMPLE         FAIR      88  56  33 NE10      30.08R                  
KILLEEN        FAIR      88  56  33 E10       30.06R                  
KILLEEN-SKYLRK FAIR      88  60  38 NE7       30.08R                  
FORT HOOD      FAIR      88  58  35 E8        30.08R                  
GATESVILLE     FAIR      88  57  35 MISG      30.10R                  
HAMILTON       FAIR      89  56  32 E7        30.12R                  
LAMPASAS       FAIR      86  62  43 SE6       30.06S                  
$$


SKY/WX - Weather  TMP - Temperature  DP - Dew Point  RH - Humidity
WIND - Wind Direction/Speed PRES - Barometric Pressure VSB - Visibility
WCI - Wind Chill Index E13G22 Wind - East Wind 13 mph/Gusts of 22 mph

Trending Headlines

Prairie Hill Radar Loop



Prairie Hill Quick Facts


National Two Day Weather Forecast


E-mail the Prairie Hill Weather Forecast

Voice your opinion or tell us about page issues...